Weather History for Kivalina, AK

Change the Weather History Date:

Wednesday, June 5, 2013

  Actual Average Record
Temperature  
Mean Temperature 34 °F -  
Max Temperature 36 °F - - ()
Min Temperature 30 °F - - ()
Degree Days  
Heating Degree Days 32    
Moisture  
Dew Point 31 °F    
Average Humidity 95    
Maximum Humidity 100    
Minimum Humidity 76    
Precipitation  
Precipitation 0.19 in - - ()
Sea Level Pressure  
Sea Level Pressure 29.72 in    
Wind  
Wind Speed 10 mph (SE)    
Max Wind Speed 13 mph    
Max Gust Speed -    
Visibility 7 miles    
Events Rain , Snow    
T = Trace of Precipitation, MM = Missing Value Source: NWS Daily Summary

Daily Weather History Graph

Daily Weather History Graph

Search for Another Location

Airport:

Trip Planner

Search our weather history database for the weather conditions in past years. The results will help you decide how hot, cold, wet, or windy it might be!

Date:

Astronomy

Jun. 05, 2013 Rise Set
Actual Time 3:29 AM AKDT 2:24 AM AKDT
Civil Twilight Sun does not rise Sun does not rise
Nautical Twilight Sun does not rise Sun does not rise
Astronomical Twilight Sun does not rise Sun does not rise
Moon 3:43 AM AKDT (6/5) 10:24 PM AKDT (6/5)
Length of Visible Light 24h 00m
Length of Day
22h 55m
Waning Crescent, 7% of the Moon is Illuminated
Jun 5
Waning Crescent
Jun 8
New
Jun 16
First Quarter
Jun 23
Full
Jun 29
Last Quarter

Hourly Weather History & Observations

Time (AKDT) Temp. Windchill Dew Point Humidity Pressure Visibility Wind Dir Wind Speed Gust Speed Precip Events Conditions
12:53 AM 37.0 °F 29.3 °F 30.0 °F 76% 29.60 in 10.0 mi North 11.5 mph - N/A   Clear
1:53 AM 35.1 °F 29.3 °F 30.0 °F 82% 29.60 in 10.0 mi North 6.9 mph - N/A   Clear
2:53 AM 35.1 °F 26.4 °F 30.0 °F 82% 29.61 in 10.0 mi NNE 12.7 mph - N/A   Clear
3:53 AM 32.0 °F 25.6 °F 30.9 °F 96% 29.62 in 10.0 mi ENE 6.9 mph - N/A   Clear
4:53 AM 30.9 °F 22.8 °F 30.9 °F 100% 29.62 in 10.0 mi East 9.2 mph - N/A   Clear
5:53 AM 30.9 °F 22.2 °F 30.0 °F 96% 29.64 in 10.0 mi ESE 10.4 mph - N/A   Clear
6:53 AM 30.9 °F 22.8 °F 30.0 °F 96% 29.65 in 10.0 mi ESE 9.2 mph - N/A   Clear
7:53 AM 30.9 °F 23.5 °F 30.0 °F 96% 29.66 in 10.0 mi SE 8.1 mph - N/A   Clear
8:53 AM 30.9 °F 21.7 °F 30.0 °F 96% 29.67 in 10.0 mi SSE 11.5 mph - N/A   Clear
9:53 AM 32.0 °F 22.5 °F 30.0 °F 92% 29.69 in 10.0 mi South 12.7 mph - N/A   Scattered Clouds
10:53 AM 32.0 °F 23.0 °F 30.0 °F 92% 29.71 in 10.0 mi South 11.5 mph - N/A   Overcast
11:53 AM 33.1 °F 23.9 °F 30.0 °F 89% 29.72 in 8.0 mi South 12.7 mph - N/A   Mostly Cloudy
12:53 PM 33.1 °F 23.9 °F 30.0 °F 89% 29.74 in 10.0 mi South 12.7 mph - N/A   Overcast
1:53 PM 33.1 °F 24.9 °F 30.9 °F 92% 29.76 in 10.0 mi South 10.4 mph - N/A   Overcast
2:53 PM 32.0 °F 24.2 °F 30.9 °F 96% 29.77 in 10.0 mi SSE 9.2 mph - N/A   Overcast
3:53 PM 33.1 °F 25.5 °F 30.9 °F 92% 29.77 in 10.0 mi SSE 9.2 mph - N/A   Overcast
4:53 PM 33.1 °F 26.1 °F 30.9 °F 92% 29.77 in 10.0 mi South 8.1 mph - N/A   Overcast
5:23 PM 32.0 °F 24.8 °F 30.2 °F 93% 29.77 in 2.5 mi South 8.1 mph - 0.00 in Snow Light Snow
5:34 PM 32.0 °F 24.8 °F 32.0 °F 100% 29.77 in 1.8 mi SSE 8.1 mph - 0.00 in Snow Light Snow
5:53 PM 32.0 °F 24.8 °F 32.0 °F 100% 29.77 in 1.2 mi SSE 8.1 mph - 0.00 in Snow Light Snow
6:14 PM 32.0 °F 24.2 °F 32.0 °F 100% 29.77 in 1.8 mi SSE 9.2 mph - 0.01 in Snow Light Snow
6:25 PM 32.0 °F 25.6 °F 32.0 °F 100% 29.77 in 1.5 mi SSE 6.9 mph - 0.01 in Snow Light Snow
6:35 PM 32.0 °F 25.6 °F 32.0 °F 100% 29.77 in 2.5 mi SSE 6.9 mph - 0.01 in Snow Light Snow
6:43 PM 32.0 °F 25.6 °F 32.0 °F 100% 29.77 in 3.0 mi SSE 6.9 mph - 0.01 in Snow Light Snow
6:53 PM 32.0 °F 26.4 °F 32.0 °F 100% 29.77 in 3.0 mi SE 5.8 mph - 0.02 in Snow Light Snow
7:53 PM 33.1 °F 27.7 °F 32.0 °F 96% 29.76 in 6.0 mi SE 5.8 mph - 0.01 in Rain Light Rain
8:53 PM 33.1 °F 25.5 °F 33.1 °F 100% 29.75 in 4.0 mi SE 9.2 mph - 0.01 in Rain Light Rain
9:39 PM 33.8 °F 27.0 °F 33.8 °F 100% 29.75 in 4.0 mi SSE 8.1 mph - 0.04 in Rain Light Rain
9:53 PM 33.1 °F 26.1 °F 33.1 °F 100% 29.75 in 4.0 mi SE 8.1 mph - 0.05 in Rain Light Rain
10:53 PM 34.0 °F 25.5 °F 34.0 °F 100% 29.75 in 4.0 mi SSE 11.5 mph - 0.05 in Rain Light Rain
11:23 PM 33.8 °F 25.3 °F 33.8 °F 100% 29.75 in 4.0 mi SSE 11.5 mph - 0.03 in Rain Light Rain
11:53 PM 34.0 °F 26.0 °F 34.0 °F 100% 29.76 in 4.0 mi SSE 10.4 mph - 0.05 in Rain Light Rain